Wetbulb
40.03 37.16 34.14 37.51 37.83 37.33 36.64 35.06 34.52 36.38 39.00 37.94 38.92 38.18 38.48 42.81 43.27 41.91 42.39 42.09 42.14 42.15 42.69 42.62 42.11 41.58 41.24 41.29 40.82 41.00 40.79 41.86 42.20 42.21 42.01 43.33 42.77 44.12 45.01 45.92 46.39 46.57 46.99 47.48
37.33 34.65 39.24 38.38 37.00 36.27 35.56 34.22 34.53 36.86 38.18 37.35 37.53 37.31 37.30 40.95 42.63 43.27 42.70 41.69 41.69 41.13 41.22 41.18 41.03 40.53 39.82 39.54 39.67 40.08 40.25 40.71 41.56 42.01 41.83 42.11 42.08 43.47 44.19 45.35 45.47 46.38 46.32 46.57
36.34 38.87 38.51 37.56 35.48 34.31 34.53 33.69 33.61 34.88 36.48 36.51 35.36 35.45 35.48 39.22 41.64 42.38 42.72 42.95 41.93 41.65 40.59 40.12 39.45 39.06 39.37 38.86 38.43 38.74 39.54 40.01 40.97 41.37 41.91 42.10 43.00 43.40 43.50 43.37 44.56 45.35 45.64 45.67
37.34 40.25 37.74 36.35 35.36 36.60 32.64 37.07 36.81 35.46 34.44 31.90 34.98 31.52 34.66 37.27 38.97 40.17 41.72 41.32 41.37 40.78 40.25 39.72 38.44 38.37 38.55 38.31 38.66 38.81 39.25 39.56 40.19 40.90 40.49 39.84 39.33 38.73 40.50 41.89 43.61 43.57 45.09 45.10
37.67 35.76 35.43 35.34 36.02 37.79 36.12 37.99 36.78 35.67 33.46 31.94 33.00 32.07 36.32 35.63 35.32 38.64 40.60 40.79 40.89 40.55 40.22 39.05 37.85 37.80 37.89 38.26 38.18 38.60 39.03 39.21 39.60 39.82 39.97 39.37 38.99 39.84 41.13 41.76 42.04 43.03 42.96 43.55
38.70 40.83 38.90 38.85 37.66 38.46 38.15 35.56 34.08 32.40 32.19 27.43 32.62 32.97 36.14 35.87 37.57 38.94 40.30 39.73 39.14 38.96 39.07 38.72 37.88 37.80 37.88 38.47 38.30 38.40 38.17 38.26 39.04 39.20 39.39 38.83 38.46 39.05 39.57 40.17 39.81 40.15 40.55 41.33
40.20 39.35 39.57 39.86 36.61 36.86 36.86 33.79 28.23 25.87 25.61 26.57 31.77 31.65 36.54 37.02 39.00 40.17 39.23 39.28 39.11 38.74 38.31 37.70 36.83 36.86 36.70 36.75 37.06 37.46 37.29 37.02 37.93 38.32 38.59 38.48 38.40 39.57 39.24 39.16 38.74 37.90 38.15 39.32
33.48 32.30 38.11 40.26 39.37 37.81 34.60 35.41 29.88 23.12 24.29 28.25 30.48 28.75 34.15 36.97 38.28 39.99 41.39 40.29 38.38 37.80 37.85 37.26 36.11 36.13 35.59 35.95 36.38 36.60 36.46 36.21 37.13 37.47 37.76 38.09 38.98 39.08 39.37 39.37 38.96 37.68 37.47 38.53
32.01 32.37 39.29 38.84 40.60 40.64 34.39 31.28 37.93 31.60 29.66 27.14 31.08 33.11 33.78 35.95 35.71 37.03 37.17 37.51 36.93 37.49 37.23 37.03 36.07 35.98 35.66 35.86 35.68 35.75 35.77 36.07 36.55 36.66 37.11 37.27 38.33 38.77 38.86 39.02 38.79 37.95 38.69 38.15
38.22 31.54 38.16 37.74 39.47 38.20 37.43 38.30 30.13 30.09 22.46 21.76 29.71 30.19 32.70 33.04 34.69 35.34 35.45 36.17 36.73 37.46 37.08 36.94 36.11 35.42 35.86 35.43 35.59 36.04 35.77 35.05 35.68 36.28 36.49 36.73 37.51 37.85 38.36 38.48 37.41 37.39 37.59 37.08
38.40 34.75 34.65 35.93 33.97 33.66 33.31 32.88 33.93 33.68 31.30 26.29 25.34 31.08 35.95 36.31 36.70 35.57 36.14 36.79 36.70 37.05 36.87 35.95 35.29 35.15 34.79 35.20 35.10 34.91 34.82 34.56 34.67 35.22 35.53 35.90 36.64 36.68 36.28 36.69 36.82 36.67 36.27 36.57
38.10 34.72 30.75 33.24 38.01 37.77 35.86 33.95 34.27 28.49 28.22 29.70 30.17 30.72 38.17 38.22 38.66 38.42 37.61 37.26 37.88 38.00 37.00 36.02 35.15 33.72 33.46 33.59 33.76 33.64 34.00 33.64 33.98 34.36 34.53 34.94 35.02 35.36 34.81 35.69 35.73 36.10 35.06 36.27
37.05 32.68 27.60 30.50 35.04 36.84 34.59 37.42 36.46 33.57 31.77 28.23 26.70 30.29 36.63 37.47 37.39 37.97 37.41 37.94 37.53 37.43 35.94 34.41 33.09 32.47 31.36 31.89 31.92 32.20 32.35 32.53 33.07 33.19 33.51 33.75 33.49 33.80 33.30 34.40 35.20 34.71 34.46 34.50
39.50 33.02 31.02 26.28 29.31 32.09 30.55 33.17 34.93 34.45 29.57 29.53 29.63 32.79 34.02 35.00 35.95 36.67 37.59 38.20 37.36 36.02 34.66 33.70 32.03 31.22 29.98 30.23 30.95 30.92 31.39 31.87 31.86 32.03 32.29 32.43 32.06 32.85 33.55 33.75 34.35 33.65 33.69 32.75
36.63 27.14 29.74 31.68 33.15 33.51 32.85 32.59 33.56 31.15 32.39 29.07 32.51 33.27 36.95 36.74 37.04 37.84 39.00 37.73 35.92 34.65 33.30 32.68 31.20 30.57 29.40 29.50 30.07 30.22 30.64 31.07 31.46 30.95 31.68 31.37 31.85 33.09 33.44 32.27 33.39 33.05 31.92 31.31
36.42 29.48 31.76 29.93 33.40 33.32 31.41 34.01 33.87 33.51 32.96 34.20 34.02 33.80 40.54 39.91 39.43 38.39 37.54 36.62 35.06 34.15 32.98 32.08 30.82 29.84 29.35 29.11 29.05 29.01 29.34 29.54 30.99 30.50 30.28 30.86 31.26 31.03 30.80 31.50 32.16 31.51 30.30 30.79
32.64 30.65 28.55 24.34 31.23 31.40 27.34 31.97 33.31 33.74 35.13 34.95 30.50 36.93 41.36 40.07 37.78 37.94 37.33 36.46 34.51 33.93 32.57 31.16 29.83 28.82 28.64 28.48 28.81 28.10 28.62 29.60 30.24 29.85 29.84 30.11 30.54 29.77 30.06 30.52 30.19 28.48 29.13 29.67
31.74 30.32 29.38 24.36 27.73 18.10 31.83 36.35 36.73 34.97 36.17 38.07 37.73 38.89 38.47 38.88 37.55 38.57 38.72 36.46 33.68 32.27 31.03 29.79 28.51 27.82 27.42 27.65 28.16 28.69 28.39 29.12 29.08 28.87 29.24 29.74 29.69 28.90 29.25 29.32 28.53 28.24 28.95 28.28
34.80 31.12 26.74 23.01 22.68 27.62 30.98 35.45 33.93 33.26 33.37 38.86 37.70 39.39 35.66 34.20 34.49 30.62 35.43 35.47 32.19 30.83 29.61 27.98 27.51 26.41 26.59 26.50 27.15 27.24 27.10 28.08 27.90 27.68 28.47 28.79 28.38 28.30 28.58 28.39 27.62 28.24 28.32 27.77
33.70 34.67 29.04 25.84 20.78 18.04 31.07 34.87 37.26 38.16 28.63 36.53 37.35 36.54 33.44 34.71 31.99 30.36 30.39 30.98 29.62 29.49 28.84 27.18 26.40 25.48 25.44 26.10 26.64 26.03 26.15 26.68 26.25 27.22 28.77 28.92 28.41 28.04 27.43 28.34 27.58 26.99 27.47 26.62
27.80 27.73 24.13 25.10 22.24 26.65 35.45 36.45 37.35 26.90 30.39 36.41 36.58 35.34 34.74 33.66 34.19 30.31 30.14 28.81 28.74 27.71 26.33 26.11 25.34 24.29 24.68 25.51 26.13 25.14 26.03 25.17 26.96 28.92 29.25 28.12 27.98 27.76 28.15 28.64 27.62 26.46 26.20 26.62
26.37 25.71 24.78 26.17 23.19 20.88 36.07 35.53 31.16 34.42 34.97 35.79 35.60 34.47 30.91 29.06 28.68 28.31 27.48 26.35 26.01 24.83 24.29 24.70 24.30 23.97 24.63 25.27 25.45 24.86 24.68 26.47 27.40 28.50 28.12 27.55 27.19 28.09 27.62 26.90 26.44 25.82 25.23 24.17
25.77 30.50 28.53 29.95 29.81 34.52 36.34 35.89 36.65 37.06 35.09 33.65 32.86 31.57 30.27 28.18 27.56 26.92 25.26 25.02 24.16 23.27 23.39 24.02 23.72 23.75 24.36 24.87 25.06 23.65 24.89 25.59 26.73 27.57 26.71 26.40 26.94 27.39 27.48 25.58 25.28 24.31 24.25 23.57
31.55 33.98 30.71 30.82 33.66 33.57 34.42 34.45 35.15 36.30 34.78 33.49 32.26 30.57 30.27 27.29 26.86 24.87 23.81 23.12 21.97 22.50 22.29 23.15 23.29 22.90 22.82 24.20 24.79 24.21 25.26 26.11 26.32 25.95 25.76 25.76 25.23 25.39 25.38 26.64 25.28 23.81 22.96 22.40
33.41 33.47 31.50 31.34 32.54 32.73 33.20 33.54 33.17 33.00 32.94 31.62 31.56 30.46 28.49 26.78 24.75 23.65 22.49 21.88 21.85 21.70 22.01 22.45 22.22 22.02 21.81 23.75 24.20 24.95 25.16 25.98 24.84 24.69 24.43 24.09 23.74 23.30 23.76 24.05 24.35 23.81 23.72 22.76
33.28 32.21 30.69 30.67 35.48 34.94 33.03 32.93 33.50 31.58 30.71 30.37 28.58 26.97 27.28 26.13 23.40 23.39 22.06 22.03 21.34 20.95 21.37 20.81 20.87 21.12 21.41 22.43 22.85 23.67 25.23 25.05 23.38 22.75 22.70 21.74 22.17 21.73 21.74 21.52 21.67 23.02 22.59 22.26
MSLP
1014.98 1015.64 1015.22 1014.91 1014.86 1014.91 1014.91 1014.87 1014.52 1014.01 1013.77 1013.82 1013.25 1013.56 1014.33 1015.65 1016.54 1017.26 1018.27 1018.99 1019.57 1020.32 1021.25 1021.95 1022.38 1022.61 1022.79 1022.87 1022.76 1022.61 1022.22 1022.16 1022.09 1021.78 1021.26 1020.31 1019.45 1019.11 1018.93 1018.87 1018.77 1018.49 1018.20 1018.06
1015.37 1014.95 1014.50 1015.11 1015.35 1015.23 1015.37 1015.17 1014.72 1014.26 1013.85 1013.96 1013.32 1013.18 1013.88 1015.03 1015.63 1016.38 1017.40 1018.59 1019.47 1020.44 1021.10 1021.71 1022.09 1022.51 1022.80 1022.92 1022.94 1022.73 1022.63 1022.55 1022.29 1021.83 1021.37 1020.67 1019.90 1019.37 1019.20 1018.94 1018.61 1018.51 1018.27 1018.01
1014.11 1014.09 1014.15 1014.78 1015.26 1015.43 1015.28 1015.08 1014.80 1014.63 1014.14 1013.80 1013.60 1013.08 1014.05 1015.07 1015.82 1016.60 1017.56 1018.60 1019.63 1020.14 1020.95 1021.70 1022.16 1022.61 1022.79 1022.73 1022.75 1022.81 1022.97 1022.87 1022.35 1021.73 1021.02 1020.42 1019.80 1019.38 1019.07 1018.96 1018.50 1018.14 1018.06 1017.92
1013.98 1013.77 1013.97 1014.35 1014.60 1014.81 1014.80 1014.49 1014.52 1014.70 1014.69 1014.00 1013.97 1012.66 1013.26 1014.43 1015.36 1016.41 1017.08 1018.03 1019.06 1020.05 1021.02 1021.65 1022.10 1022.48 1022.80 1022.88 1023.10 1023.07 1022.87 1022.58 1022.12 1021.78 1021.19 1020.68 1020.21 1019.82 1019.73 1019.26 1018.71 1018.06 1017.72 1017.50
1013.35 1013.53 1013.82 1013.95 1013.78 1014.45 1014.34 1014.37 1014.68 1014.72 1014.58 1014.35 1014.04 1014.17 1012.56 1014.09 1015.09 1015.39 1016.37 1017.54 1018.73 1019.86 1020.78 1021.59 1022.20 1022.60 1022.93 1023.20 1023.16 1022.88 1022.64 1022.34 1022.03 1021.62 1021.27 1020.82 1020.63 1020.40 1019.85 1019.16 1018.30 1017.67 1017.54 1017.56
1013.32 1013.32 1013.33 1013.28 1013.51 1013.69 1014.20 1014.69 1015.04 1015.16 1014.89 1014.02 1013.35 1013.86 1010.55 1012.83 1013.35 1014.38 1016.13 1017.56 1018.74 1019.82 1020.83 1021.70 1022.28 1022.72 1022.98 1023.06 1022.96 1022.79 1022.53 1022.03 1021.74 1021.45 1021.32 1021.35 1020.96 1020.13 1019.48 1018.83 1018.09 1017.75 1017.69 1017.28
1013.28 1012.90 1013.12 1012.99 1013.44 1013.76 1013.80 1014.45 1014.88 1015.11 1014.89 1013.15 1013.20 1013.46 1010.83 1012.88 1013.64 1014.12 1015.07 1016.68 1018.48 1019.81 1020.84 1021.52 1022.03 1022.44 1022.76 1023.00 1023.07 1022.69 1022.29 1021.91 1021.85 1021.76 1021.59 1021.19 1020.68 1020.04 1019.45 1018.83 1018.32 1017.99 1017.64 1017.23
1013.06 1012.51 1012.36 1012.22 1012.14 1012.35 1013.09 1013.25 1013.67 1013.77 1013.92 1013.35 1013.71 1012.70 1012.33 1013.81 1014.44 1014.68 1015.41 1016.86 1018.41 1019.80 1020.78 1021.50 1022.11 1022.58 1022.93 1023.17 1023.10 1022.82 1022.45 1022.16 1021.92 1021.44 1021.05 1020.81 1020.51 1019.81 1019.47 1019.20 1018.80 1018.26 1017.72 1017.34
1013.06 1012.64 1012.09 1011.92 1011.82 1012.32 1012.68 1013.08 1013.14 1013.47 1014.19 1013.90 1012.75 1012.54 1013.45 1014.22 1014.87 1015.49 1016.28 1017.46 1018.50 1019.66 1020.66 1021.35 1021.99 1022.53 1022.94 1023.01 1023.02 1022.98 1022.70 1022.29 1021.87 1021.45 1021.00 1020.64 1020.31 1020.02 1019.69 1019.40 1018.73 1018.21 1017.62 1017.09
1012.87 1012.81 1012.26 1011.93 1012.05 1012.41 1012.44 1012.80 1013.43 1014.18 1014.46 1013.62 1012.02 1012.37 1012.21 1013.75 1014.65 1015.91 1016.87 1017.63 1018.78 1019.64 1020.42 1021.19 1021.94 1022.41 1022.69 1022.93 1022.95 1022.82 1022.63 1022.30 1022.10 1021.74 1021.32 1020.95 1020.68 1020.13 1019.87 1019.45 1018.62 1017.86 1017.58 1016.85
1013.67 1013.71 1013.16 1012.65 1012.43 1012.24 1012.88 1012.88 1013.12 1013.28 1013.10 1012.38 1011.77 1011.12 1011.55 1012.74 1014.00 1015.16 1016.22 1017.19 1018.25 1019.33 1020.32 1021.19 1021.97 1022.43 1022.70 1022.81 1022.73 1022.65 1022.57 1022.42 1022.00 1021.83 1021.66 1021.36 1020.78 1020.21 1019.88 1019.45 1018.61 1017.95 1017.36 1016.57
1015.02 1014.66 1014.11 1013.54 1012.83 1012.49 1012.50 1012.66 1012.81 1013.09 1012.75 1012.62 1012.09 1010.47 1011.81 1012.88 1013.66 1014.99 1016.27 1017.27 1018.28 1019.20 1020.09 1020.98 1021.87 1022.60 1022.79 1022.89 1022.84 1022.79 1022.68 1022.52 1022.46 1022.30 1021.95 1021.50 1020.83 1020.37 1019.82 1019.27 1018.67 1017.94 1017.05 1016.34
1015.60 1015.50 1015.03 1013.77 1013.46 1013.30 1012.87 1012.53 1012.84 1013.16 1013.44 1012.52 1012.30 1010.93 1012.32 1012.94 1013.57 1014.59 1015.67 1016.87 1017.89 1018.88 1020.11 1021.20 1022.00 1022.80 1022.94 1023.06 1022.92 1022.88 1022.65 1022.51 1022.50 1022.44 1021.97 1021.46 1021.14 1020.60 1019.78 1019.27 1018.45 1017.68 1016.87 1016.24
1016.31 1015.97 1015.56 1014.96 1014.37 1014.25 1013.70 1013.32 1013.03 1013.01 1012.95 1011.47 1011.60 1010.51 1011.92 1012.83 1013.53 1014.47 1015.25 1016.41 1017.69 1019.07 1020.09 1021.30 1022.28 1023.09 1023.49 1023.64 1023.19 1023.10 1022.95 1022.97 1022.66 1022.39 1021.93 1021.56 1020.89 1020.52 1019.82 1019.33 1018.39 1017.56 1016.85 1016.20
1016.70 1016.15 1016.05 1015.17 1014.60 1014.56 1014.05 1013.54 1013.14 1012.98 1012.14 1011.78 1010.72 1010.91 1009.91 1011.79 1012.95 1013.79 1015.05 1016.50 1017.66 1018.84 1020.16 1021.42 1022.55 1023.35 1023.88 1023.75 1023.39 1023.24 1023.20 1023.07 1022.80 1022.16 1021.75 1021.52 1021.05 1020.55 1019.89 1019.16 1018.32 1017.58 1016.87 1016.12
1017.08 1016.39 1016.09 1014.94 1014.48 1014.45 1013.67 1012.68 1012.18 1012.38 1011.67 1011.18 1010.58 1009.83 1009.07 1011.03 1012.36 1013.46 1014.09 1015.49 1017.27 1018.81 1020.22 1021.54 1022.49 1023.38 1024.05 1023.84 1023.58 1023.43 1023.25 1023.28 1023.05 1022.42 1021.93 1021.51 1020.89 1020.35 1019.69 1018.87 1018.26 1017.72 1017.03 1015.99
1017.14 1016.88 1016.36 1014.87 1014.42 1013.85 1013.11 1011.48 1011.26 1011.16 1010.76 1010.38 1010.06 1009.23 1009.60 1010.81 1012.18 1012.94 1013.73 1014.84 1016.62 1018.50 1020.25 1021.73 1022.56 1023.42 1023.96 1024.07 1024.10 1023.62 1023.27 1023.22 1022.96 1022.60 1022.26 1021.34 1020.64 1020.13 1019.52 1018.86 1018.32 1017.91 1017.02 1016.00
1016.48 1016.65 1016.41 1015.12 1014.65 1013.42 1011.46 1010.90 1010.41 1010.24 1010.30 1010.24 1010.07 1009.54 1010.66 1011.47 1012.67 1013.32 1014.19 1015.52 1017.26 1019.12 1020.86 1022.13 1022.94 1023.86 1024.03 1024.12 1024.28 1024.10 1023.78 1022.80 1023.00 1022.45 1022.06 1021.51 1020.90 1020.22 1019.52 1018.80 1018.48 1017.84 1017.02 1016.21
1015.48 1015.87 1015.73 1015.10 1014.00 1012.48 1011.19 1010.06 1009.88 1009.80 1008.89 1009.34 1009.97 1010.05 1011.78 1012.84 1013.77 1015.38 1015.77 1016.58 1018.26 1020.05 1021.42 1022.26 1023.22 1024.07 1024.20 1024.06 1024.13 1024.22 1023.77 1023.20 1022.56 1022.60 1022.19 1021.60 1021.02 1020.20 1019.55 1018.85 1018.48 1017.78 1016.93 1016.22
1014.62 1014.73 1015.10 1014.57 1013.74 1011.87 1009.93 1009.57 1009.50 1009.52 1009.13 1009.31 1009.91 1010.97 1012.21 1013.48 1014.50 1016.24 1017.55 1018.13 1019.47 1020.66 1021.71 1022.72 1023.56 1024.17 1024.11 1024.26 1024.27 1023.95 1023.67 1023.28 1023.02 1022.49 1022.12 1021.82 1021.19 1020.45 1019.83 1019.22 1018.56 1018.10 1017.36 1016.45
1014.24 1014.35 1013.97 1013.64 1013.38 1011.54 1009.64 1009.65 1009.94 1010.29 1010.00 1010.33 1010.98 1011.89 1012.99 1014.15 1015.01 1016.76 1018.47 1019.64 1020.48 1021.42 1022.63 1023.39 1023.82 1024.27 1024.71 1024.73 1024.18 1024.00 1023.53 1023.47 1023.27 1022.79 1022.49 1022.00 1021.42 1020.70 1020.06 1019.58 1018.86 1018.22 1017.37 1016.54
1013.02 1013.12 1013.00 1013.13 1012.56 1011.43 1010.04 1010.26 1010.55 1010.50 1011.00 1011.40 1012.12 1013.11 1014.39 1015.58 1016.81 1017.97 1019.31 1020.59 1021.49 1022.58 1023.38 1023.92 1024.19 1024.75 1025.06 1024.88 1024.45 1023.67 1023.71 1023.78 1023.57 1023.19 1022.52 1022.05 1021.65 1020.75 1020.42 1019.62 1019.05 1018.39 1017.70 1016.99
1012.62 1012.15 1011.86 1011.89 1011.11 1010.89 1010.99 1011.15 1011.05 1011.06 1011.55 1012.71 1013.22 1014.34 1015.27 1016.70 1017.81 1019.11 1020.44 1021.59 1022.63 1023.34 1023.93 1024.43 1024.74 1025.06 1025.08 1024.80 1024.53 1024.24 1024.31 1024.19 1023.80 1023.20 1022.70 1022.25 1021.69 1021.25 1020.59 1020.03 1019.47 1018.98 1018.24 1017.41
1011.69 1011.58 1011.96 1011.85 1011.13 1011.39 1011.70 1012.19 1011.99 1011.86 1012.31 1013.20 1014.19 1015.45 1016.35 1017.29 1018.95 1020.31 1021.72 1022.70 1023.41 1023.99 1024.48 1024.86 1025.01 1025.15 1025.22 1025.19 1024.89 1024.83 1024.81 1024.45 1023.96 1023.48 1022.99 1022.63 1022.24 1021.59 1021.15 1020.50 1020.07 1019.48 1019.03 1018.32
1010.99 1011.22 1011.09 1011.24 1011.71 1012.06 1012.21 1012.82 1013.19 1013.45 1013.66 1014.62 1015.84 1016.63 1017.48 1018.46 1020.03 1021.21 1022.50 1023.41 1023.99 1024.53 1024.94 1025.20 1025.42 1025.71 1025.86 1025.69 1025.44 1025.38 1025.31 1025.01 1024.46 1024.02 1023.58 1023.08 1022.68 1022.29 1021.71 1021.34 1020.92 1020.41 1020.29 1019.80
1010.56 1010.27 1010.53 1010.40 1010.60 1011.10 1012.22 1013.42 1013.79 1014.29 1015.02 1015.66 1016.50 1017.95 1019.04 1019.68 1020.75 1022.00 1022.97 1023.86 1024.54 1025.08 1025.54 1025.97 1026.46 1026.63 1026.49 1026.04 1026.00 1026.27 1026.14 1025.67 1025.11 1024.35 1023.99 1023.92 1023.48 1023.15 1022.68 1022.09 1021.54 1021.40 1020.95 1020.40
Wind_Speed
2 3 9 12 8 2 2 2 4 2 4 5 10 7 10 13 13 14 15 13 12 10 8 6 6 7 8 9 10 10 9 9 7 6 6 4 7 7 7 7 11 11 11 12
3 10 9 3 4 5 4 6 10 7 4 6 6 11 8 15 16 17 18 15 13 10 8 5 5 6 7 8 10 10 11 10 6 5 6 4 7 5 7 7 10 10 12 13
10 5 4 8 5 7 5 7 4 6 4 4 5 8 6 7 6 12 12 11 11 12 10 6 3 5 7 9 10 10 9 9 7 9 6 6 5 5 5 8 8 9 12 12
10 7 7 5 6 9 4 11 10 7 4 4 2 9 4 8 13 12 15 14 13 11 9 6 3 4 6 8 7 7 8 8 8 10 8 10 8 8 7 7 8 9 12 13
6 6 10 11 10 8 6 6 7 3 4 3 6 8 3 5 10 17 18 17 14 11 10 7 3 3 4 6 6 7 8 8 9 10 10 9 9 7 7 7 11 10 10 12
6 0 6 6 2 8 5 4 3 3 2 8 10 10 12 8 8 9 13 14 13 12 9 6 3 1 4 6 7 7 9 10 11 11 11 11 11 11 10 11 10 9 9 9
9 19 4 3 3 2 6 4 3 4 4 9 3 11 14 2 5 7 20 20 15 12 10 7 3 3 5 8 9 9 10 11 11 11 11 11 11 11 12 13 10 13 10 9
5 5 15 12 19 9 9 11 6 7 7 4 2 10 3 3 6 7 10 16 15 12 8 6 3 3 4 6 8 9 10 11 11 11 12 11 11 8 9 12 11 10 10 10
3 5 2 5 6 13 5 9 8 5 1 4 5 4 3 1 1 6 13 15 14 12 9 7 4 3 3 6 8 9 10 11 12 13 12 12 12 12 11 14 12 10 13 12
3 7 6 3 4 1 8 4 3 5 5 8 12 9 11 7 10 8 12 14 12 11 10 7 5 3 2 5 7 9 10 12 12 12 11 11 12 12 12 12 14 15 15 16
2 2 3 2 3 7 5 5 5 3 6 8 9 9 4 5 12 16 17 16 15 13 10 7 5 3 3 5 8 9 10 12 12 12 12 12 11 13 12 12 14 15 16 16
4 2 3 5 2 4 3 4 8 8 12 5 9 18 4 3 12 13 14 13 12 11 11 8 6 3 4 6 8 9 10 11 12 12 12 12 12 13 13 13 15 15 16 16
3 1 4 5 2 1 6 14 11 2 6 10 13 15 2 3 11 15 16 14 14 13 11 7 5 2 3 5 6 8 9 10 11 12 12 11 12 13 14 14 16 16 16 17
3 2 6 10 4 1 5 12 10 12 10 16 17 22 7 7 11 13 15 15 13 11 11 7 5 2 2 4 6 8 9 9 10 10 10 12 12 14 14 14 16 16 16 16
4 11 10 15 16 12 15 15 17 12 17 12 19 19 24 14 15 16 14 12 14 13 11 7 5 2 2 5 7 8 9 10 10 10 11 12 13 13 15 15 17 17 16 16
4 5 2 11 11 10 18 19 17 19 18 20 21 21 18 6 10 14 18 17 15 13 10 8 6 4 4 7 8 9 9 10 10 10 11 11 13 14 15 14 17 17 17 17
6 4 3 10 3 6 9 19 18 14 15 12 14 17 15 11 11 16 16 18 18 15 11 8 6 4 5 7 8 9 9 9 10 10 12 13 14 14 14 15 16 16 17 17
9 6 5 9 7 11 7 4 7 12 16 18 17 17 6 1 6 4 9 14 15 14 12 8 5 4 5 6 8 9 9 8 10 11 13 13 14 14 13 15 15 16 15 15
16 12 7 8 10 14 18 10 9 8 11 12 17 14 5 12 10 10 10 14 16 14 10 8 6 4 5 7 8 8 9 10 11 12 13 14 13 12 13 16 15 15 15 15
14 14 11 5 7 8 4 2 2 6 9 3 5 9 16 14 8 6 11 17 16 14 10 8 6 5 7 7 7 7 9 11 12 13 14 13 12 13 14 16 15 14 14 14
4 7 17 13 11 11 8 5 1 7 3 2 2 9 16 7 2 18 15 14 14 12 10 7 8 7 6 6 7 7 10 12 13 13 12 12 13 13 13 13 14 14 14 14
10 7 6 10 10 15 2 4 8 2 3 4 9 10 11 15 18 18 16 14 13 11 9 8 7 6 6 7 7 10 11 12 12 12 12 12 12 12 11 13 15 15 15 15
7 7 4 8 6 2 2 3 5 3 7 6 11 13 18 18 17 16 14 12 10 9 8 8 7 6 7 9 10 10 12 12 12 12 12 12 13 12 12 14 13 12 14 13
5 5 4 2 4 2 3 4 2 4 9 11 15 17 17 21 16 15 12 10 9 8 8 7 7 8 9 9 10 10 10 11 10 11 12 12 11 13 13 10 11 11 12 12
3 9 8 6 2 4 5 4 8 13 17 18 15 15 18 19 16 14 12 10 9 9 8 7 8 7 8 8 9 10 11 11 10 10 10 12 11 12 12 12 11 11 12 14
5 6 5 5 8 4 7 11 14 16 16 17 19 17 14 16 16 14 12 10 9 8 8 7 7 6 7 10 11 10 9 10 10 10 10 10 9 10 10 11 11 16 18 22
Wind_Direction
141 199 220 213 206 212 145 217 254 248 232 293 267 252 212 187 193 184 187 184 173 158 136 102 59 34 18 21 13 8 4 4 356 349 327 311 3 358 1 349 348 345 340 331
130 232 227 209 191 199 227 246 261 288 273 220 285 267 197 185 207 200 188 189 176 151 150 119 66 37 27 15 8 6 3 353 347 348 345 343 336 337 340 339 340 341 337 328
198 198 121 172 175 194 212 212 217 249 318 234 289 259 187 202 203 191 196 193 177 167 158 141 77 33 23 21 9 1 351 344 347 354 351 355 345 333 346 342 339 344 338 328
240 205 175 177 187 189 242 214 221 239 261 262 330 286 242 197 204 210 199 189 178 168 155 148 108 49 24 16 3 351 351 352 360 357 357 359 352 338 334 323 333 332 337 333
221 172 203 220 227 183 251 163 195 202 221 304 218 264 196 157 214 216 203 190 180 167 161 154 111 41 24 5 352 354 352 0 3 4 1 353 344 333 321 331 336 343 338 325
268 124 164 199 145 178 139 92 70 75 147 252 202 220 259 202 220 213 197 188 174 166 159 146 118 63 14 6 2 359 358 5 4 2 359 349 341 338 336 341 345 340 329 322
246 241 223 169 153 117 172 143 223 225 201 248 182 204 263 220 213 210 194 184 172 162 160 162 145 39 12 1 358 358 3 3 0 357 352 351 347 339 340 343 340 332 325 320
218 271 199 201 220 210 189 187 196 230 218 264 155 233 248 345 321 261 202 172 156 160 163 159 127 64 13 357 357 356 358 354 354 355 355 352 344 344 333 339 333 325 321 310
213 242 220 198 231 197 174 214 227 261 168 282 222 252 202 267 19 137 148 159 158 164 167 164 145 113 19 1 1 357 353 352 354 353 351 347 343 340 331 332 331 327 322 315
250 278 246 161 146 92 229 145 149 130 211 236 252 265 259 213 210 177 169 168 168 169 169 169 160 135 49 9 359 0 358 353 347 349 347 339 335 339 331 330 334 333 323 320
6 215 261 108 188 190 176 216 222 204 215 237 267 256 163 232 190 188 186 180 175 176 175 165 153 132 41 12 8 1 355 349 349 347 338 333 336 343 335 332 334 331 324 324
307 118 271 271 205 174 153 223 213 226 227 234 257 263 107 238 195 186 184 180 178 177 171 163 145 120 40 12 2 355 352 351 347 338 334 336 338 340 338 332 336 333 329 326
1 31 313 257 180 149 245 244 230 57 2 262 261 263 31 192 172 185 183 181 181 175 163 153 133 133 42 358 353 350 353 349 343 335 338 338 338 340 339 333 337 336 334 330
359 246 239 257 292 165 305 326 271 236 230 242 232 258 215 200 189 189 193 189 176 171 162 156 141 115 2 341 351 350 350 343 339 339 337 340 346 339 339 333 339 338 337 333
211 261 257 259 256 259 268 265 278 250 247 241 258 250 259 200 197 200 192 173 169 169 162 154 150 116 341 345 358 355 346 343 341 343 346 345 342 339 343 339 340 340 339 335
349 268 294 270 265 254 262 250 248 252 257 251 255 262 253 155 182 187 185 176 177 164 155 147 133 82 358 2 359 350 349 345 337 342 349 343 343 345 343 343 342 342 336 337
253 254 256 270 346 295 258 245 247 240 241 235 232 249 273 268 199 197 188 175 164 156 150 135 97 61 10 359 347 349 350 345 348 348 344 347 348 345 345 343 342 340 336 339
234 215 248 274 297 264 255 250 238 241 252 254 264 262 287 203 72 107 162 153 140 134 126 107 100 42 21 5 352 344 347 3 352 353 346 347 346 345 342 344 346 339 340 338
218 226 240 244 254 278 290 252 189 185 259 254 236 254 159 125 97 59 110 126 121 120 118 120 101 57 24 18 0 350 357 2 1 351 346 347 348 343 347 348 344 344 344 339
215 214 213 211 244 256 238 230 202 148 267 223 209 181 161 158 183 141 132 120 115 116 116 114 92 69 39 17 3 11 7 5 358 350 346 349 346 350 349 352 351 343 347 341
180 201 223 228 238 263 252 182 138 208 250 100 163 163 166 175 9 134 126 110 107 104 103 97 80 62 35 12 16 24 14 7 353 347 348 350 354 348 352 349 355 351 351 347
214 206 192 221 225 246 107 141 207 117 29 117 124 129 112 116 120 121 117 113 101 98 89 79 76 61 39 27 27 28 18 359 354 348 355 359 357 0 358 359 4 359 359 355
227 221 212 218 217 55 345 297 304 175 138 155 130 131 129 129 125 119 113 110 101 96 89 75 72 66 47 35 33 24 8 354 348 356 2 2 6 1 8 9 4 1 3 2
231 173 237 216 182 215 78 32 349 134 120 118 125 135 137 128 124 117 116 113 105 95 87 82 72 56 46 36 35 26 10 359 354 6 6 5 6 3 9 2 11 11 7 5
209 155 194 241 146 84 63 134 128 115 116 120 125 132 130 125 125 126 120 114 109 99 88 73 65 56 46 39 39 28 15 5 4 14 10 12 13 7 5 13 5 15 16 12
195 179 180 244 189 158 158 151 139 132 132 129 128 123 121 125 124 122 114 108 103 96 88 78 68 68 51 44 37 25 13 16 17 21 18 18 13 12 10 6 5 12 13 15